Powrót do katalogu

STARLINK-11583

AktywnyŁącznośćVLEO
NORAD 62991·PAYLOAD·🇺🇸 United States

Wystrzelony Feb 11, 2025 z Cape Canaveral Space Force Station

Loading…

Następne Przeloty (najbliższe 24 godziny)

TLE

ŚwieżeSource: CelesTrak SupGP

Epoka: Sep 15, 2026, 03:35 UTC

1 62991C 25031L   26258.14979167  .00066336  00000+0  51499-3 0  2587
2 62991  43.0003 299.7043 0001515 248.6647 224.0568 15.70816975    19

Śledź STARLINK-11583 w czasie rzeczywistym z AllMySat

Download on the App Store